Location: Newark
(3.0500°N, 36.0167°E)
Time: 04:57:55
(UTC+00:00)

Explorer 11/Cluster Stage 4 - Visible Passes

Search period start: 21 August 2019 00:00
Search period end: 31 August 2019 00:00
Orbit: 467 x 1260 km, 28.8° (Epoch: 20 August)

Date Brightness Start Highest point End Pass type
(mag) Time Alt. Az. Time Alt. Az. Time Alt. Az.
21 Aug 9.1 02:48:19 10° S 02:51:17 13° SSE 02:54:30 10° ESE visible
21 Aug 7.3 17:26:50 10° W 17:30:41 31° SW 17:30:41 31° SW visible
22 Aug 9.0 02:37:12 10° S 02:40:39 16° SSE 02:44:29 10° ESE visible
22 Aug 7.5 17:16:26 10° W 17:20:22 25° SW 17:21:05 24° SSW visible
23 Aug 8.8 02:26:13 10° S 02:30:00 18° SSE 02:34:19 10° ESE visible
23 Aug 7.9 17:06:06 10° W 17:09:48 21° SW 17:11:31 17° S visible
24 Aug 8.7 02:15:24 10° SSW 02:19:22 21° SE 02:24:01 10° E visible
24 Aug 8.3 16:55:51 10° WSW 16:59:14 18° SW 17:01:57 11° S visible
25 Aug 8.3 02:05:47 16° S 02:08:43 24° SE 02:13:39 10° E visible
25 Aug 8.5 16:45:43 10° WSW 16:48:39 15° SW 16:51:17 10° S visible
26 Aug 7.9 01:56:12 22° S 01:58:04 28° SE 02:03:11 10° E visible
26 Aug 8.7 16:35:47 10° WSW 16:38:03 13° SW 16:40:11 10° S visible
27 Aug 7.5 01:46:37 31° SSE 01:47:26 33° SE 01:52:40 10° E visible
27 Aug 9.0 16:26:16 10° SW 16:27:29 11° SSW 16:28:39 10° SSW visible
28 Aug 7.3 01:37:02 40° SE 01:37:02 40° SE 01:42:05 10° ENE visible
29 Aug 7.4 01:27:28 40° ESE 01:27:28 40° ESE 01:31:28 10° ENE visible
29 Aug 7.6 03:10:15 10° W 03:14:55 35° NNW 03:20:40 10° NE visible
30 Aug 7.9 01:17:52 31° ENE 01:17:52 31° ENE 01:20:47 10° ENE visible
30 Aug 7.8 03:00:11 10° W 03:04:26 27° NNW 03:09:33 10° NNE visible
